TimeCDT,TemperatureF,Dew PointF,Humidity,Sea Level PressureIn,VisibilityMPH,Wind Direction,Wind SpeedMPH,Gust SpeedMPH,PrecipitationIn,Events,Conditions,WindDirDegrees,DateUTC
12:15 AM,41.0,30.2,65,30.14,10.0,West,13.8,35.7,N/A,,Overcast,270,2012-10-05 05:15:00
12:35 AM,41.0,30.2,65,30.13,10.0,West,16.1,29.9,N/A,,Overcast,270,2012-10-05 05:35:00
12:55 AM,41.0,30.2,65,30.12,10.0,West,13.8,18.4,N/A,,Overcast,270,2012-10-05 05:55:00
1:15 AM,41.0,30.2,65,30.13,10.0,WNW,16.1,23.0,N/A,,Overcast,300,2012-10-05 06:15:00
1:35 AM,41.0,30.2,65,30.13,10.0,West,20.7,29.9,N/A,,Overcast,270,2012-10-05 06:35:00
1:55 AM,41.0,30.2,65,30.13,10.0,West,11.5,21.9,N/A,,Overcast,270,2012-10-05 06:55:00
2:15 AM,41.0,30.2,65,30.13,10.0,West,16.1,-,N/A,,Overcast,270,2012-10-05 07:15:00
2:35 AM,41.0,28.4,61,30.13,10.0,West,16.1,26.5,N/A,,Overcast,270,2012-10-05 07:35:00
2:55 AM,41.0,30.2,65,30.12,10.0,West,15.0,20.7,N/A,,Overcast,260,2012-10-05 07:55:00
3:15 AM,41.0,30.2,65,30.12,10.0,West,13.8,21.9,N/A,,Overcast,270,2012-10-05 08:15:00
3:35 AM,41.0,30.2,65,30.11,10.0,West,13.8,-,N/A,,Overcast,270,2012-10-05 08:35:00
3:55 AM,41.0,28.4,61,30.11,10.0,West,15.0,25.3,N/A,,Overcast,270,2012-10-05 08:55:00
4:15 AM,41.0,28.4,61,30.11,10.0,West,17.3,25.3,N/A,,Overcast,270,2012-10-05 09:15:00
4:35 AM,39.2,28.4,65,30.12,10.0,West,15.0,20.7,N/A,,Overcast,270,2012-10-05 09:35:00
4:55 AM,39.2,28.4,65,30.11,10.0,West,17.3,27.6,N/A,,Overcast,270,2012-10-05 09:55:00
5:15 AM,39.2,28.4,65,30.11,10.0,West,11.5,-,N/A,,Overcast,270,2012-10-05 10:15:00
5:35 AM,37.4,30.2,75,30.11,10.0,West,17.3,23.0,N/A,,Overcast,260,2012-10-05 10:35:00
5:55 AM,37.4,28.4,70,30.11,10.0,West,12.7,-,N/A,,Overcast,270,2012-10-05 10:55:00
6:15 AM,35.6,28.4,75,30.11,10.0,West,13.8,19.6,N/A,,Overcast,260,2012-10-05 11:15:00
6:35 AM,35.6,28.4,75,30.10,10.0,West,16.1,20.7,N/A,,Mostly Cloudy,260,2012-10-05 11:35:00
6:55 AM,35.6,28.4,75,30.11,10.0,West,11.5,19.6,N/A,,Scattered Clouds,260,2012-10-05 11:55:00
7:15 AM,35.6,28.4,75,30.11,10.0,West,11.5,19.6,N/A,,Mostly Cloudy,260,2012-10-05 12:15:00
7:35 AM,35.6,28.4,75,30.11,10.0,West,16.1,21.9,N/A,,Overcast,270,2012-10-05 12:35:00
7:55 AM,35.6,28.4,75,30.11,10.0,West,13.8,18.4,N/A,,Overcast,260,2012-10-05 12:55:00
8:15 AM,35.6,30.2,81,30.12,10.0,West,17.3,23.0,N/A,,Overcast,260,2012-10-05 13:15:00
8:35 AM,35.6,30.2,81,30.12,10.0,WSW,16.1,21.9,N/A,,Overcast,250,2012-10-05 13:35:00
8:55 AM,35.6,30.2,81,30.13,10.0,West,19.6,-,N/A,,Overcast,260,2012-10-05 13:55:00
9:15 AM,37.4,28.4,70,30.13,10.0,West,17.3,23.0,N/A,,Overcast,260,2012-10-05 14:15:00
9:35 AM,37.4,28.4,70,30.13,10.0,West,13.8,24.2,N/A,,Overcast,270,2012-10-05 14:35:00
9:55 AM,37.4,28.4,70,30.13,10.0,West,17.3,23.0,N/A,,Overcast,280,2012-10-05 14:55:00
10:15 AM,37.4,28.4,70,30.13,10.0,West,21.9,27.6,N/A,,Overcast,270,2012-10-05 15:15:00
10:35 AM,37.4,28.4,70,30.13,10.0,West,16.1,27.6,N/A,,Overcast,260,2012-10-05 15:35:00
10:55 AM,39.2,28.4,65,30.12,10.0,West,18.4,28.8,N/A,,Overcast,280,2012-10-05 15:55:00
11:35 AM,41.0,28.4,61,30.11,10.0,West,18.4,28.8,N/A,,Overcast,280,2012-10-05 16:35:00
11:55 AM,42.8,28.4,57,30.11,10.0,West,18.4,28.8,N/A,,Overcast,280,2012-10-05 16:55:00
12:15 PM,42.8,28.4,57,30.12,10.0,WNW,18.4,25.3,N/A,,Overcast,290,2012-10-05 17:15:00
12:35 PM,42.8,28.4,57,30.11,10.0,West,18.4,27.6,N/A,,Overcast,260,2012-10-05 17:35:00
12:55 PM,42.8,28.4,57,30.11,10.0,West,19.6,27.6,N/A,,Overcast,280,2012-10-05 17:55:00
1:35 PM,42.8,28.4,57,30.11,10.0,WNW,19.6,28.8,N/A,,Overcast,300,2012-10-05 18:35:00
1:55 PM,42.8,28.4,57,30.11,10.0,West,17.3,27.6,N/A,,Overcast,280,2012-10-05 18:55:00
2:15 PM,42.8,26.6,53,30.11,10.0,WNW,18.4,25.3,N/A,,Overcast,300,2012-10-05 19:15:00
2:35 PM,41.0,28.4,61,30.11,10.0,West,19.6,28.8,N/A,,Overcast,270,2012-10-05 19:35:00
2:55 PM,41.0,28.4,61,30.11,10.0,West,15.0,21.9,N/A,,Overcast,280,2012-10-05 19:55:00
3:15 PM,41.0,28.4,61,30.11,10.0,WNW,18.4,27.6,N/A,,Overcast,290,2012-10-05 20:15:00
3:35 PM,41.0,26.6,57,30.11,10.0,West,17.3,24.2,N/A,,Overcast,280,2012-10-05 20:35:00
3:55 PM,41.0,26.6,57,30.11,10.0,WNW,15.0,25.3,N/A,,Overcast,290,2012-10-05 20:55:00
4:15 PM,41.0,26.6,57,30.11,10.0,WNW,19.6,28.8,N/A,,Overcast,300,2012-10-05 21:15:00
4:35 PM,41.0,26.6,57,30.11,10.0,WNW,19.6,28.8,N/A,,Overcast,290,2012-10-05 21:35:00
4:55 PM,41.0,26.6,57,30.11,10.0,West,16.1,24.2,N/A,,Overcast,270,2012-10-05 21:55:00
5:15 PM,41.0,26.6,57,30.11,10.0,West,15.0,21.9,N/A,,Overcast,280,2012-10-05 22:15:00
5:35 PM,41.0,26.6,57,30.11,10.0,West,13.8,27.6,N/A,,Overcast,270,2012-10-05 22:35:00
5:55 PM,41.0,26.6,57,30.11,10.0,West,19.6,24.2,N/A,,Overcast,280,2012-10-05 22:55:00
6:15 PM,41.0,26.6,57,30.11,10.0,West,20.7,26.5,N/A,,Overcast,270,2012-10-05 23:15:00
6:35 PM,41.0,26.6,57,30.12,10.0,WNW,15.0,25.3,N/A,,Overcast,290,2012-10-05 23:35:00
6:55 PM,41.0,26.6,57,30.12,10.0,West,15.0,20.7,N/A,,Overcast,280,2012-10-05 23:55:00
7:15 PM,41.0,26.6,57,30.12,10.0,West,18.4,-,N/A,,Overcast,280,2012-10-06 00:15:00
7:35 PM,39.2,26.6,61,30.12,10.0,WNW,13.8,23.0,N/A,,Mostly Cloudy,290,2012-10-06 00:35:00
7:55 PM,39.2,28.4,65,30.13,10.0,WNW,16.1,23.0,N/A,,Mostly Cloudy,290,2012-10-06 00:55:00
8:15 PM,39.2,28.4,65,30.13,10.0,WNW,12.7,20.7,N/A,,Overcast,300,2012-10-06 01:15:00
8:35 PM,39.2,28.4,65,30.13,10.0,WNW,13.8,23.0,N/A,,Overcast,290,2012-10-06 01:35:00
8:55 PM,39.2,28.4,65,30.13,10.0,WNW,17.3,24.2,N/A,,Mostly Cloudy,290,2012-10-06 01:55:00
9:15 PM,37.4,28.4,70,30.13,10.0,WNW,10.4,20.7,N/A,,Mostly Cloudy,290,2012-10-06 02:15:00
9:35 PM,37.4,28.4,70,30.13,10.0,WNW,15.0,20.7,N/A,,Overcast,290,2012-10-06 02:35:00
9:55 PM,37.4,26.6,65,30.14,10.0,WNW,17.3,25.3,N/A,,Overcast,290,2012-10-06 02:55:00
10:35 PM,37.4,26.6,65,30.14,10.0,WNW,12.7,19.6,N/A,,Overcast,290,2012-10-06 03:35:00
10:55 PM,37.4,26.6,65,30.14,10.0,WNW,17.3,21.9,N/A,,Overcast,290,2012-10-06 03:55:00
11:15 PM,37.4,28.4,70,30.14,10.0,WNW,13.8,20.7,N/A,,Overcast,290,2012-10-06 04:15:00
11:35 PM,37.4,28.4,70,30.14,10.0,WNW,13.8,20.7,N/A,,Overcast,290,2012-10-06 04:35:00
11:55 PM,37.4,28.4,70,30.14,10.0,WNW,12.7,19.6,N/A,,Overcast,290,2012-10-06 04:55:00